DMSP 5D-2 F13 DEB, 40434

Orbit data source: Space-Track

DMSP 5D-2 F13 DEB, 40434 is space debris in SSO originally from a launch on Fri, 24 Mar 1995 UTC launched from the Air Force Western Test Range (AFWTR). Debris objects in space refer to the collection of defunct objects orbiting the Earth. Examples of debris include non-operational satellites, rocket bodies, and fragments generated from explosions, collisions, or faulty payload assembly.

Loading next visibility...
Identifier
40434, 1995-015AL
Orbit
SSO
Country
Flag of USUS
Related business
Manufacturer
Unknown
Mission
Spacecraft
Bus & Motor
Unknown
Mass
Unknown
Launch date (UTC)
1995-03-24 (30 years ago)
Launch vehicle
Unknown
Launch site
Air Force Western Test Range (AFWTR)
Object type
Payload
Rocket body
Debris
Shape & HBR
Unknown
Radar Cross Section
Small (<0.1 m²)

Expand to show TLE details & history
Last TLE update: 1 day ago

TLE from 1 day ago
0 DMSP 5D-2 F13 DEB
1 40434U 95015AL  25257.38831131  .00001317  00000-0  63647-3 0  9995
2 40434  99.0919 236.1666 0172043 274.9031  83.2518 14.12955524540393
Epoch: 2025-09-14T09:19Z
TLE epoch observation values (Epoch: 2025-09-14T09:19:10.097Z)
Latitude
-0.00002°
Longitude
102.7665°
Altitude
839.671 km
Speed
7.439 km/s
True Right ascension
15h 44m 39s
True Declination
0° 00' 00"
Sunlit
Object was in daylight at epoch
Visualization orbit readout
Latitude
Unknown
Longitude
Unknown
Altitude
Unknown
Speed
Unknown
Apparent Right ascension
Unknown
Apparent Declination
Unknown
Sunlit
N/A
Visualization observer readout
Local Sidereal Time
06:16:25
Azimuth
Unknown
Elevation
Unknown
Doppler factor
Unknown
Orbital elements
Apogee altitude
970.755 km
Perigee altitude
722.167 km
Semi-major axis
7,224.598 km
Eccentricity
0.0172
Inclination
99.0919°
RAAN
236.1666°
Arg. of periapsis
274.9031°
True anomaly
85.21419°
Mean anomaly
83.2518°
Eccentric anomaly
84.23254°
Mean motion
3.53446 °/min
Orbital period
101.85 mins
BSTAR
0.00063647
Loading maneuver chart data...
Computing Atmospheric mass density...

Documentation

Showing up to 5 results
|